Dickinson, ND

7:51 AM MST on February 24, 2017 (GMT -0700)
Dickinson Municipal

Weather History for KDIK - February, 2014

Change the Weather History Date:

Wednesday, February 12, 2014

  Actual Average Record
Temperature  
Mean Temperature 18 °F 20 °F  
Max Temperature 42 °F 30 °F 62 °F (1921)
Min Temperature -6 °F 9 °F -39 °F (1905)
Degree Days  
Heating Degree Days 47 45  
Month to date heating degree days 737 556  
Since 1 July heating degree days 5870 5603  
Cooling Degree Days 0 0  
Month to date cooling degree days 0 0  
Year to date cooling degree days 0 0  
Moisture  
Dew Point 11 °F    
Average Humidity 76    
Maximum Humidity 87    
Minimum Humidity 64    
Precipitation  
Precipitation T in 0.01 in 0.44 in (1973)
Month to date precipitation 0.01 0.10  
Year to date precipitation 0.05 0.40  
Sea Level Pressure  
Sea Level Pressure 29.76 in    
Wind  
Wind Speed 17 mph (South)    
Max Wind Speed 35 mph    
Max Gust Speed 47 mph    
Visibility 7 miles    
Events Fog , Snow    
T = Trace of Precipitation, MM = Missing Value Source: NWS Daily Summary

Daily Weather History Graph

Daily Weather History Graph

Search for Another Location

Airport or City:

Trip Planner

Search our weather history database for the weather conditions in past years. The results will help you decide how hot, cold, wet, or windy it might be!

Date:

Astronomy

Feb. 12, 2014 Rise Set
Actual Time 6:59 AM MST 5:11 PM MST
Civil Twilight 6:28 AM MST 5:43 PM MST
Nautical Twilight 5:52 AM MST 6:18 PM MST
Astronomical Twilight 5:17 AM MST 6:53 PM MST
Moon 3:24 PM MST (2/12) 5:21 AM MST (2/12)
Length of Visible Light 11h 14m
Length of Day
10h 11m
Waxing Gibbous, 96% of the Moon is Illuminated
Feb 12
Waxing Gibbous
Feb 14
Full
Feb 22
Last Quarter
Mar 1
New
Mar 8
First Quarter

Hourly Weather History & Observations

Time (MST) Temp. Windchill Dew Point Humidity Pressure Visibility Wind Dir Wind Speed Gust Speed Precip Events Conditions
12:56 AM -2.0 °F -13.9 °F -6.0 °F 83% 30.14 in 10.0 mi SW 5.8 mph - N/A   Clear
1:56 AM -0.9 °F -12.7 °F -6.0 °F 79% 30.14 in 10.0 mi West 5.8 mph - N/A   Clear
2:56 AM -0.9 °F -8.9 °F -4.0 °F 87% 30.14 in 10.0 mi NW 3.5 mph - N/A   Clear
3:56 AM -4.0 °F -12.4 °F -7.1 °F 87% 30.14 in 10.0 mi South 3.5 mph - N/A   Clear
4:56 AM -4.0 °F -20.2 °F -9.0 °F 79% 30.13 in 10.0 mi South 9.2 mph - N/A   Clear
5:29 AM -4.0 °F -14.6 °F -9.9 °F 76% 29.96 in 10.0 mi SE 4.6 mph - N/A   Scattered Clouds
5:39 AM -2.0 °F -12.2 °F -7.1 °F 79% 29.95 in 10.0 mi SSE 4.6 mph - N/A   Mostly Cloudy
5:56 AM 1.0 °F -11.7 °F -2.9 °F 83% 30.10 in 10.0 mi SE 6.9 mph - N/A   Overcast
6:18 AM 1.9 °F -9.2 °F -0.9 °F 88% 29.92 in 1.8 mi ESE 5.8 mph - N/A   Overcast
6:31 AM 3.9 °F -5.3 °F -0.0 °F 84% 29.90 in 0.5 mi ENE 4.6 mph - N/A Fog Light Freezing Fog
6:56 AM 3.0 °F -9.3 °F -0.0 °F 87% 30.05 in 0.5 mi ESE 6.9 mph - N/A Fog Light Freezing Fog
7:21 AM 5.0 °F -4.1 °F 1.9 °F 87% 29.87 in 0.2 mi ESE 4.6 mph - N/A Fog Light Freezing Fog
7:56 AM 9.0 °F -2.2 °F 5.0 °F 84% 30.00 in 0.2 mi SE 6.9 mph - N/A Fog Light Freezing Fog
8:56 AM 10.9 °F -8.3 °F 8.1 °F 88% 29.97 in 0.2 mi SSE 21.9 mph - 0.00 in Fog , Snow Light Snow
9:10 AM 10.9 °F -7.9 °F 8.1 °F 88% 29.81 in 0.5 mi SSE 20.7 mph - 0.00 in Fog , Snow Light Snow
9:26 AM 12.9 °F -4.4 °F 10.0 °F 88% 29.80 in 1.8 mi SSE 18.4 mph 25.3 mph 0.00 in Snow Light Snow
9:33 AM 12.9 °F -4.9 °F 10.9 °F 92% 29.79 in 2.0 mi SSE 19.6 mph - 0.00 in Snow Light Snow
9:40 AM 14.0 °F -3.4 °F 10.9 °F 88% 29.79 in 1.2 mi SSE 19.6 mph - 0.00 in Snow Light Snow
9:56 AM 15.1 °F -3.3 °F 10.9 °F 84% 29.91 in 1.0 mi SSE 23.0 mph - 0.00 in Snow Light Snow
10:40 AM 15.1 °F -1.1 °F 10.9 °F 84% 29.72 in 2.0 mi South 17.3 mph 28.8 mph 0.00 in   Overcast
10:56 AM 15.1 °F -2.0 °F 10.9 °F 84% 29.86 in 6.0 mi SSE 19.6 mph 26.5 mph 0.00 in   Mostly Cloudy
11:23 AM 17.1 °F 1.5 °F 12.0 °F 81% 29.66 in 8.0 mi South 17.3 mph - N/A   Scattered Clouds
11:56 AM 19.0 °F 3.6 °F 14.0 °F 81% 29.75 in 10.0 mi SSE 18.4 mph - N/A   Clear
12:56 PM 21.9 °F 7.8 °F 15.1 °F 75% 29.67 in 10.0 mi South 17.3 mph 26.5 mph N/A   Overcast
1:56 PM 25.0 °F 11.3 °F 18.0 °F 75% 29.60 in 10.0 mi South 18.4 mph 29.9 mph N/A   Overcast
2:56 PM 26.1 °F 11.3 °F 19.0 °F 75% 29.57 in 10.0 mi South 23.0 mph 31.1 mph N/A   Overcast
3:41 PM 27.0 °F 13.9 °F 21.0 °F 78% 29.39 in 2.5 mi South 18.4 mph - 0.00 in Snow Light Snow
3:48 PM 27.0 °F 14.3 °F 21.0 °F 78% 29.39 in 8.0 mi South 17.3 mph - 0.00 in Snow Light Snow
3:56 PM 28.0 °F 15.7 °F 21.9 °F 78% 29.52 in 10.0 mi South 17.3 mph - 0.00 in   Overcast
4:56 PM 28.9 °F 16.5 °F 23.0 °F 78% 29.48 in 10.0 mi South 18.4 mph - N/A   Overcast
5:56 PM 30.9 °F 19.8 °F 24.1 °F 76% 29.43 in 10.0 mi South 16.1 mph - N/A   Mostly Cloudy
6:56 PM 35.1 °F 25.2 °F 26.1 °F 70% 29.41 in 10.0 mi SW 16.1 mph - N/A   Overcast
7:56 PM 39.0 °F 29.6 °F 28.9 °F 67% 29.38 in 10.0 mi West 18.4 mph - 0.00 in   Mostly Cloudy
8:56 PM 41.0 °F 30.5 °F 30.0 °F 65% 29.40 in 10.0 mi West 26.5 mph 36.8 mph N/A   Overcast
9:56 PM 39.0 °F 27.4 °F 28.9 °F 67% 29.42 in 10.0 mi West 28.8 mph 36.8 mph N/A   Clear
10:56 PM 37.9 °F 25.7 °F 28.0 °F 68% 29.44 in 10.0 mi West 29.9 mph 39.1 mph N/A   Clear
11:56 PM 35.1 °F 21.0 °F 25.0 °F 67% 29.50 in 10.0 mi WNW 34.5 mph 47.2 mph N/A   Clear